When you browse on this site, cookies collect data to enhance your experience and personalize the content and advertising you see.
Visit our Privacy Policy to learn more. By continuing to use the site, you agree to this use of cookies and data.
  • In Hungary
  • List of Countries
  • For 7 days
  • Water Temperature
  • Weather Map
  • News
  • Weather Widgets
  • user-avatar
    Login

    Hourly Weather Titovo

    Today, 22 January, Wednesday

    Time Temperature Precipitation Wind Pressure Humidity
    00:00 -1°C° 0 mm 5 mps 735 mmHg 80%
    01:00 -1°C° 0 mm 5 mps 735 mmHg 80%
    02:00 -2°C° 0 mm 4 mps 735 mmHg 79%
    03:00 -2°C° 0 mm 4 mps 734 mmHg 78%
    04:00 -2°C° 0 mm 4 mps 733 mmHg 78%
    05:00 -2°C° 0 mm 4 mps 733 mmHg 77%
    06:00 -2°C° 0 mm 4 mps 732 mmHg 78%
    07:00 -2°C° 0 mm 4 mps 731 mmHg 79%
    08:00 -2°C° 0 mm 4 mps 731 mmHg 80%
    09:00 -2°C° 0 mm 4 mps 730 mmHg 82%
    10:00 -1°C° 0 mm 5 mps 730 mmHg 83%
    11:00 -1°C° 0 mm 5 mps 729 mmHg 85%
    12:00 -1°C° 0.4 mm 5 mps 729 mmHg 84%
    13:00 -2°C° 0.4 mm 6 mps 729 mmHg 84%
    14:00 -3°C° 0.4 mm 6 mps 729 mmHg 84%
    15:00 -2°C° 0.1 mm 5 mps 729 mmHg 81%
    16:00 -4°C° 0.1 mm 5 mps 730 mmHg 79%
    17:00 -4°C° 0.1 mm 5 mps 730 mmHg 76%
    18:00 -4°C° 0 mm 5 mps 731 mmHg 78%
    19:00 -5°C° 0 mm 5 mps 731 mmHg 79%
    20:00 -5°C° 0 mm 5 mps 732 mmHg 81%
    21:00 -5°C° 0 mm 5 mps 732 mmHg 81%
    22:00 -5°C° 0 mm 5 mps 733 mmHg 82%
    23:00 -5°C° 0 mm 5 mps 733 mmHg 82%

    Tomorrow, 23 January, Thursday

    Time Temperature Precipitation Wind Pressure Humidity
    00:00 -5°C° 0.1 mm 5 mps 734 mmHg 81%
    01:00 -6°C° 0.1 mm 6 mps 735 mmHg 79%
    02:00 -6°C° 0.1 mm 6 mps 735 mmHg 78%
    03:00 -6°C° 0 mm 6 mps 736 mmHg 74%
    04:00 -8°C° 0 mm 6 mps 736 mmHg 70%
    05:00 -8°C° 0 mm 6 mps 736 mmHg 67%
    06:00 -8°C° 0 mm 6 mps 737 mmHg 65%
    07:00 -7°C° 0 mm 5 mps 738 mmHg 63%
    08:00 -8°C° 0 mm 5 mps 739 mmHg 61%
    09:00 -7°C° 0 mm 5 mps 739 mmHg 59%
    10:00 -6°C° 0 mm 5 mps 740 mmHg 56%
    11:00 -6°C° 0 mm 5 mps 740 mmHg 54%
    12:00 -5°C° 0 mm 5 mps 740 mmHg 52%
    13:00 -5°C° 0 mm 6 mps 740 mmHg 51%
    14:00 -5°C° 0 mm 6 mps 741 mmHg 49%
    15:00 -5°C° 0 mm 5 mps 741 mmHg 55%
    16:00 -5°C° 0 mm 5 mps 741 mmHg 60%
    17:00 -5°C° 0 mm 4 mps 740 mmHg 66%
    18:00 -5°C° 0 mm 4 mps 741 mmHg 69%
    19:00 -5°C° 0 mm 4 mps 741 mmHg 71%
    20:00 -5°C° 0 mm 4 mps 741 mmHg 74%
    21:00 -5°C° 0 mm 3 mps 741 mmHg 75%
    22:00 -5°C° 0 mm 3 mps 741 mmHg 76%
    23:00 -4°C° 0 mm 2 mps 741 mmHg 78%

    Day after tomorrow, 24 January, Friday

    Time Temperature Precipitation Wind Pressure Humidity
    00:00 -5°C° 0 mm 3 mps 741 mmHg 81%
    01:00 -4°C° 0 mm 3 mps 740 mmHg 85%
    02:00 -4°C° 0 mm 3 mps 740 mmHg 88%
    03:00 -4°C° 0 mm 3 mps 739 mmHg 88%
    04:00 -4°C° 0 mm 4 mps 739 mmHg 88%
    05:00 -4°C° 0 mm 4 mps 738 mmHg 88%
    06:00 -3°C° 0.2 mm 4 mps 737 mmHg 90%
    07:00 -3°C° 0.2 mm 4 mps 737 mmHg 93%
    08:00 -4°C° 0.2 mm 5 mps 736 mmHg 95%
    09:00 -2°C° 0.2 mm 4 mps 736 mmHg 95%
    10:00 -1°C° 0.2 mm 4 mps 735 mmHg 96%
    11:00 0°C° 0.2 mm 4 mps 735 mmHg 96%
    12:00 0°C° 0.1 mm 4 mps 735 mmHg 95%
    13:00 +1°C° 0.1 mm 4 mps 734 mmHg 94%
    14:00 +1°C° 0.1 mm 5 mps 734 mmHg 93%
    15:00 +1°C° 0.1 mm 5 mps 734 mmHg 93%
    16:00 +1°C° 0.1 mm 5 mps 734 mmHg 92%
    17:00 +1°C° 0.1 mm 5 mps 733 mmHg 92%
    18:00 +1°C° 0 mm 5 mps 734 mmHg 92%
    19:00 +1°C° 0 mm 5 mps 734 mmHg 92%
    20:00 +1°C° 0 mm 5 mps 734 mmHg 92%
    21:00 +1°C° 0.1 mm 4 mps 734 mmHg 93%
    22:00 +1°C° 0.1 mm 4 mps 734 mmHg 94%
    23:00 +1°C° 0.1 mm 4 mps 733 mmHg 95%

    25 January, Saturday

    Time Temperature Precipitation Wind Pressure Humidity
    00:00 +1°C° 0.1 mm 4 mps 733 mmHg 95%
    01:00 +1°C° 0.1 mm 4 mps 733 mmHg 95%
    02:00 +1°C° 0.1 mm 4 mps 732 mmHg 95%
    03:00 +1°C° 0.2 mm 4 mps 732 mmHg 95%
    04:00 +1°C° 0.2 mm 4 mps 732 mmHg 95%
    05:00 +1°C° 0.2 mm 4 mps 731 mmHg 94%
    06:00 +1°C° 0.1 mm 4 mps 731 mmHg 94%
    07:00 0°C° 0.1 mm 4 mps 731 mmHg 93%
    08:00 0°C° 0.1 mm 4 mps 731 mmHg 92%
    09:00 0°C° 0 mm 4 mps 731 mmHg 90%
    10:00 0°C° 0 mm 4 mps 732 mmHg 88%
    11:00 +1°C° 0 mm 5 mps 732 mmHg 85%
    12:00 +1°C° 0 mm 5 mps 732 mmHg 83%
    13:00 +1°C° 0 mm 5 mps 732 mmHg 81%
    14:00 +1°C° 0 mm 5 mps 732 mmHg 78%
    15:00 0°C° 0 mm 5 mps 732 mmHg 78%
    16:00 -1°C° 0 mm 5 mps 732 mmHg 78%
    17:00 -2°C° 0 mm 6 mps 732 mmHg 77%
    18:00 -2°C° 0.1 mm 6 mps 732 mmHg 78%
    19:00 -2°C° 0.1 mm 6 mps 733 mmHg 80%
    20:00 -3°C° 0.1 mm 7 mps 733 mmHg 81%
    21:00 -3°C° 0.1 mm 6 mps 734 mmHg 79%
    22:00 -4°C° 0.1 mm 5 mps 735 mmHg 77%
    23:00 -4°C° 0.1 mm 4 mps 735 mmHg 75%

    26 January, Sunday

    Time Temperature Precipitation Wind Pressure Humidity
    00:00 -4°C° 0 mm 4 mps 736 mmHg 74%
    01:00 -4°C° 0 mm 4 mps 737 mmHg 74%
    02:00 -5°C° 0 mm 4 mps 738 mmHg 74%
    03:00 -5°C° 0 mm 4 mps 738 mmHg 75%
    04:00 -5°C° 0 mm 4 mps 739 mmHg 76%
    05:00 -5°C° 0 mm 4 mps 739 mmHg 77%
    06:00 -5°C° 0 mm 3 mps 740 mmHg 78%
    07:00 -5°C° 0 mm 3 mps 740 mmHg 79%
    08:00 -5°C° 0 mm 3 mps 741 mmHg 81%
    09:00 -4°C° 0 mm 3 mps 741 mmHg 78%
    10:00 -2°C° 0 mm 3 mps 742 mmHg 75%
    11:00 -2°C° 0 mm 3 mps 743 mmHg 72%
    12:00 -1°C° 0 mm 3 mps 743 mmHg 72%
    13:00 -1°C° 0 mm 2 mps 743 mmHg 71%
    14:00 -1°C° 0 mm 2 mps 743 mmHg 71%
    15:00 -1°C° 0 mm 2 mps 743 mmHg 75%
    16:00 -2°C° 0 mm 2 mps 743 mmHg 79%
    17:00 -3°C° 0 mm 2 mps 744 mmHg 83%
    18:00 -3°C° 0 mm 2 mps 744 mmHg 82%
    19:00 -2°C° 0 mm 2 mps 744 mmHg 81%
    20:00 -2°C° 0 mm 2 mps 744 mmHg 80%
    21:00 -2°C° 0 mm 3 mps 744 mmHg 83%
    22:00 -2°C° 0 mm 3 mps 744 mmHg 86%
    23:00 -1°C° 0 mm 3 mps 744 mmHg 89%

    27 January, Monday

    Time Temperature Precipitation Wind Pressure Humidity
    00:00 -1°C° 0 mm 3 mps 744 mmHg 89%
    01:00 -1°C° 0 mm 3 mps 743 mmHg 88%
    02:00 -1°C° 0 mm 3 mps 743 mmHg 87%
    03:00 -1°C° 0 mm 3 mps 743 mmHg 86%
    04:00 -1°C° 0 mm 3 mps 743 mmHg 85%
    05:00 -1°C° 0 mm 3 mps 742 mmHg 84%
    06:00 -1°C° 0 mm 3 mps 742 mmHg 85%
    07:00 -1°C° 0 mm 3 mps 742 mmHg 86%
    08:00 -1°C° 0 mm 3 mps 742 mmHg 86%
    09:00 -2°C° 0 mm 4 mps 742 mmHg 86%
    10:00 -2°C° 0 mm 4 mps 742 mmHg 85%
    11:00 -2°C° 0 mm 4 mps 741 mmHg 85%
    12:00 -2°C° 0 mm 4 mps 741 mmHg 85%
    13:00 -2°C° 0 mm 4 mps 740 mmHg 86%
    14:00 -1°C° 0 mm 4 mps 740 mmHg 86%
    15:00 -1°C° 0 mm 4 mps 740 mmHg 88%
    16:00 -1°C° 0 mm 4 mps 740 mmHg 90%
    17:00 -1°C° 0 mm 4 mps 739 mmHg 92%
    18:00 -1°C° 0 mm 4 mps 739 mmHg 91%
    19:00 -1°C° 0 mm 4 mps 739 mmHg 91%
    20:00 -1°C° 0 mm 4 mps 739 mmHg 90%
    21:00 -1°C° 0 mm 4 mps 739 mmHg 91%
    22:00 -1°C° 0 mm 4 mps 739 mmHg 91%
    23:00 -1°C° 0 mm 4 mps 739 mmHg 92%
    Show more